Find Maido-1

NORAD ID: 33496 Int'l Des: 2009-002 Owner: SOHLA/JAXA Country: J operational
LEOCIRCULARRETROGRADESSO

实时位置

正在加载3D地球...

关于 Maido-1

正在加载描述...

即将过境

Passes for default location (London). Set your location on the main map for personalized predictions.

高度历史

Loading altitude history...

两行轨道根数

1 33496U 09002E 26121.68458015 .00000532 00000-0 86882-4 0 9991
2 33496 98.1431 26.1467 0006312 152.1402 208.0145 14.74979088927135
Epoch: May 1, 2026 • Age: 17 hours

当前状态

高度 651.5 km
速度 7.54 km/s
星下点 59.38°N, 138.32°W
发射日期 Jan 23, 2009
运行时间 17.2 years
类型 other

技术详情

分类 Payload
质量 50.00 kg
干质量 50.00 kg
总质量 50.00 kg
长度 0.50 m
直径 0.50 m
跨度 0.50 m
形状 Box
制造商 SOHLA
平台类型 SOHLA
阶段状态 In Orbit
所有者/国家 SOHLA/JAXA/J

Most Searched